Weather History for McAlester, OK

Change the Weather History Date:

Sunday, March 2, 2014

  Actual Average Record
Temperature  
Mean Temperature 24 °F -  
Max Temperature 33 °F 60 °F 84 °F (1983)
Min Temperature 12 °F 41 °F 9 °F (1980)
Degree Days  
Heating Degree Days 42    
Moisture  
Dew Point 14 °F    
Average Humidity 81    
Maximum Humidity 93    
Minimum Humidity 72    
Precipitation  
Precipitation 0.13 in - - ()
Sea Level Pressure  
Sea Level Pressure 30.22 in    
Wind  
Wind Speed 18 mph (North)    
Max Wind Speed 23 mph    
Max Gust Speed 34 mph    
Visibility 3 miles    
Events Rain , Snow , Thunderstorm    
Averages and records for this station are not official NWS values.
T = Trace of Precipitation, MM = Missing Value Source: NWS Daily Summary

Daily Weather History Graph

Daily Weather History Graph

Search for Another Location

Airport:

Trip Planner

Search our weather history database for the weather conditions in past years. The results will help you decide how hot, cold, wet, or windy it might be!

Date:

Astronomy

Mar. 02, 2014 Rise Set
Actual Time 6:51 AM CST 6:19 PM CST
Civil Twilight 6:25 AM CST 6:45 PM CST
Nautical Twilight 5:56 AM CST 7:14 PM CST
Astronomical Twilight 5:27 AM CST 7:43 PM CST
Moon 7:27 AM CST (3/2) 8:10 PM CST (3/2)
Length of Visible Light 12h 19m
Length of Day
11h 28m
Waxing Crescent, 3% of the Moon is Illuminated
Mar 2
Waxing Crescent
Mar 8
First Quarter
Mar 16
Full
Mar 23
Last Quarter
Mar 30
New

Hourly Weather History & Observations

Time (CST) Temp. Windchill Dew Point Humidity Pressure Visibility Wind Dir Wind Speed Gust Speed Precip Events Conditions
12:53 AM 33.1 °F 21.5 °F 25.0 °F 72% 30.11 in 9.0 mi North 19.6 mph 27.6 mph 0.00 in   Overcast
1:27 AM 30.2 °F 19.3 °F 24.8 °F 80% 30.11 in 7.0 mi North 15.0 mph 23.0 mph N/A   Overcast
1:53 AM 28.9 °F 16.1 °F 24.1 °F 82% 30.13 in 6.0 mi North 19.6 mph 27.6 mph N/A   Haze
2:53 AM 28.0 °F 14.6 °F 24.1 °F 85% 30.13 in 6.0 mi NNE 20.7 mph 28.8 mph N/A   Overcast
3:53 AM 27.0 °F 13.9 °F 24.1 °F 89% 30.14 in 4.0 mi NNE 18.4 mph 24.2 mph 0.00 in Rain Light Freezing Rain
4:06 AM 26.6 °F 14.7 °F 23.0 °F 86% 30.14 in 3.0 mi North 15.0 mph 27.6 mph 0.00 in Snow Light Snow
4:53 AM 26.1 °F 13.1 °F 23.0 °F 88% 30.17 in 3.0 mi North 17.3 mph 27.6 mph 0.00 in Snow Light Snow
5:01 AM 26.6 °F 15.2 °F 23.0 °F 86% 30.16 in 2.5 mi North 13.8 mph 23.0 mph 0.00 in Snow Light Snow
5:25 AM 26.6 °F 13.1 °F 23.0 °F 86% 30.16 in 3.0 mi North 19.6 mph 25.3 mph 0.00 in Rain Light Freezing Rain
5:53 AM 26.1 °F 12.7 °F 21.9 °F 84% 30.19 in 3.0 mi North 18.4 mph 24.2 mph 0.00 in Rain Light Freezing Rain
6:14 AM 24.8 °F 11.9 °F 21.2 °F 86% 30.18 in 2.5 mi North 16.1 mph 24.2 mph 0.00 in Rain Light Freezing Rain
6:38 AM 24.8 °F 11.5 °F 21.2 °F 86% 30.20 in 3.0 mi North 17.3 mph 24.2 mph 0.00 in Rain Light Freezing Rain
6:53 AM 24.1 °F 11.0 °F 19.9 °F 84% 30.20 in 3.0 mi North 16.1 mph 28.8 mph 0.00 in Rain Light Freezing Rain
7:19 AM 21.2 °F 6.8 °F 19.4 °F 93% 30.22 in 2.0 mi North 17.3 mph 25.3 mph 0.00 in Rain Light Freezing Rain
7:53 AM 21.0 °F 7.1 °F 17.1 °F 85% 30.25 in 3.0 mi North 16.1 mph 25.3 mph 0.00 in Rain Light Freezing Rain
8:01 AM 19.4 °F 5.0 °F 15.8 °F 86% 30.24 in 3.0 mi North 16.1 mph 24.2 mph 0.00 in   Overcast
8:16 AM 19.4 °F 4.5 °F 15.8 °F 86% 30.25 in 2.5 mi North 17.3 mph 28.8 mph 0.00 in Rain Light Freezing Rain
8:27 AM 19.4 °F 5.0 °F 15.8 °F 86% 30.25 in 2.0 mi North 16.1 mph 31.1 mph 0.00 in Snow Light Snow
8:53 AM 19.0 °F 3.6 °F 14.0 °F 81% 30.27 in 2.0 mi North 18.4 mph - 0.00 in Snow Light Snow
9:27 AM 19.4 °F 4.1 °F 15.8 °F 86% 30.23 in 4.0 mi North 18.4 mph 25.3 mph 0.00 in Snow Light Snow
9:53 AM 18.0 °F 3.1 °F 14.0 °F 84% 30.26 in 5.0 mi North 16.1 mph 24.2 mph 0.00 in   Overcast
10:19 AM 19.4 °F 5.0 °F 15.8 °F 86% 30.24 in 3.0 mi North 16.1 mph 28.8 mph 0.00 in Snow Light Snow
10:26 AM 19.4 °F 4.1 °F 15.8 °F 86% 30.23 in 2.5 mi North 18.4 mph 25.3 mph 0.00 in Snow Light Snow
10:53 AM 19.0 °F 4.0 °F 14.0 °F 81% 30.26 in 2.5 mi North 17.3 mph 26.5 mph 0.00 in Snow Light Snow
11:09 AM 19.4 °F 4.1 °F 14.0 °F 80% 30.24 in 3.0 mi North 18.4 mph 24.2 mph 0.00 in Snow Light Snow
11:53 AM 19.0 °F 4.5 °F 14.0 °F 81% 30.23 in 5.0 mi NNE 16.1 mph 24.2 mph 0.00 in Snow Light Snow
12:23 PM 19.4 °F 5.0 °F 14.0 °F 80% 30.19 in 2.5 mi North 16.1 mph 27.6 mph 0.00 in   Overcast
12:35 PM 19.4 °F 4.5 °F 15.8 °F 86% 30.19 in 1.8 mi North 17.3 mph 26.5 mph 0.00 in   Overcast
12:42 PM 19.4 °F 6.6 °F 15.8 °F 86% 30.21 in 2.5 mi North 12.7 mph 23.0 mph 0.00 in Rain Light Freezing Rain
12:53 PM 19.9 °F 5.2 °F 15.1 °F 81% 30.23 in 1.8 mi North 17.3 mph - 0.00 in Rain Light Freezing Rain
1:01 PM 19.4 °F 5.5 °F 15.8 °F 86% 30.20 in 1.2 mi NNW 15.0 mph 23.0 mph 0.00 in   Overcast
1:05 PM 19.4 °F 2.8 °F 15.8 °F 86% 30.20 in 0.8 mi North 21.9 mph 29.9 mph 0.00 in Snow Light Snow
1:15 PM 17.6 °F 0.1 °F 12.2 °F 79% 30.19 in 1.5 mi North 23.0 mph 32.2 mph 0.00 in Snow Light Snow
1:18 PM 17.6 °F 0.5 °F 12.2 °F 79% 30.19 in 3.0 mi North 21.9 mph 32.2 mph 0.00 in Snow Light Snow
1:25 PM 17.6 °F 0.5 °F 10.4 °F 73% 30.20 in 7.0 mi North 21.9 mph 32.2 mph 0.00 in   Overcast
1:39 PM 17.6 °F 0.5 °F 10.4 °F 73% 30.19 in 1.8 mi North 21.9 mph 28.8 mph 0.01 in Snow Light Snow
1:47 PM 17.6 °F 2.2 °F 12.2 °F 79% 30.20 in 1.2 mi North 17.3 mph 26.5 mph 0.01 in Snow Light Snow
1:53 PM 17.1 °F 1.5 °F 12.0 °F 81% 30.22 in 1.2 mi NNE 17.3 mph 25.3 mph 0.01 in Snow Light Snow
2:15 PM 15.8 °F -0.2 °F 10.4 °F 79% 30.17 in 1.5 mi NNE 17.3 mph 28.8 mph 0.00 in Snow Light Snow
2:22 PM 17.6 °F 1.7 °F 10.4 °F 73% 30.16 in 1.2 mi NNE 18.4 mph 28.8 mph 0.01 in Snow Light Snow
2:53 PM 16.0 °F -2.1 °F 10.9 °F 81% 30.20 in 1.5 mi North 23.0 mph 28.8 mph 0.01 in Snow Light Snow
3:03 PM 15.8 °F 0.9 °F 10.4 °F 79% 30.20 in 1.2 mi North 15.0 mph 26.5 mph 0.00 in Snow Light Snow
3:17 PM 15.8 °F -1.5 °F 10.4 °F 79% 30.19 in 2.0 mi North 20.7 mph 31.1 mph 0.01 in Snow Light Snow
3:24 PM 15.8 °F 0.3 °F 10.4 °F 79% 30.19 in 5.0 mi North 16.1 mph 28.8 mph 0.01 in   Overcast
3:28 PM 15.8 °F 0.3 °F 10.4 °F 79% 30.20 in 2.5 mi North 16.1 mph 26.5 mph 0.01 in Snow Light Snow
3:53 PM 16.0 °F -1.3 °F 10.9 °F 81% 30.19 in 1.5 mi North 20.7 mph 29.9 mph 0.01 in Snow Light Snow
4:06 PM 15.8 °F -1.1 °F 10.4 °F 79% 30.20 in 2.5 mi North 19.6 mph 31.1 mph 0.00 in Snow Light Snow
4:18 PM 15.8 °F -1.5 °F 10.4 °F 79% 30.18 in 1.8 mi North 20.7 mph 33.4 mph 0.00 in Snow Light Snow
4:26 PM 15.8 °F -1.5 °F 10.4 °F 79% 30.17 in 2.5 mi North 20.7 mph 27.6 mph 0.00 in Snow Light Snow
4:33 PM 15.8 °F -1.1 °F 10.4 °F 79% 30.16 in 1.5 mi North 19.6 mph 28.8 mph 0.01 in Snow , Thunderstorm Light Snow
4:40 PM 15.8 °F 2.7 °F 10.4 °F 79% 30.24 in 1.2 mi NNW 11.5 mph 25.3 mph 0.02 in Snow , Thunderstorm Light Snow
4:48 PM 15.8 °F 1.4 °F 10.4 °F 79% 30.20 in 1.2 mi North 13.8 mph 20.7 mph 0.05 in   Overcast
4:53 PM 16.0 °F -0.9 °F 10.9 °F 81% 30.23 in 1.2 mi North 19.6 mph - 0.06 in   Overcast
5:06 PM 15.8 °F -0.2 °F 10.4 °F 79% 30.20 in 1.5 mi North 17.3 mph 25.3 mph 0.00 in Snow Light Snow
5:10 PM 15.8 °F 0.3 °F 10.4 °F 79% 30.20 in 1.0 mi North 16.1 mph 25.3 mph 0.00 in Snow Light Snow
5:53 PM 16.0 °F 0.1 °F 10.9 °F 81% 30.28 in 1.0 mi North 17.3 mph 26.5 mph 0.03 in Snow Light Snow
6:02 PM 15.8 °F 0.3 °F 10.4 °F 79% 30.24 in 1.5 mi North 16.1 mph 24.2 mph 0.00 in Snow Light Snow
6:23 PM 15.8 °F 0.3 °F 10.4 °F 79% 30.24 in 2.0 mi North 16.1 mph 28.8 mph 0.00 in Snow Light Snow
6:53 PM 15.1 °F -2.5 °F 10.0 °F 80% 30.28 in 3.0 mi North 20.7 mph 28.8 mph 0.00 in Snow Light Snow
7:30 PM 15.8 °F -0.6 °F 8.6 °F 73% 30.27 in 4.0 mi North 18.4 mph 27.6 mph 0.00 in Snow Light Snow
7:53 PM 15.1 °F -0.1 °F 10.0 °F 80% 30.31 in 4.0 mi North 15.0 mph 28.8 mph 0.00 in   Haze
8:15 PM 15.8 °F 2.1 °F 10.4 °F 79% 30.28 in 4.0 mi North 12.7 mph 25.3 mph 0.00 in Snow Light Snow
8:23 PM 15.8 °F -0.2 °F 10.4 °F 79% 30.30 in 1.8 mi North 17.3 mph 20.7 mph 0.01 in Snow Light Snow
8:42 PM 15.8 °F 0.9 °F 10.4 °F 79% 30.30 in 1.2 mi North 15.0 mph - 0.01 in Snow Light Snow
8:53 PM 14.0 °F -3.4 °F 9.0 °F 80% 30.24 in 1.2 mi NNE 19.6 mph 34.5 mph 0.01 in Snow Light Snow
9:02 PM 14.0 °F 1.2 °F 8.6 °F 79% 30.30 in 1.5 mi North 10.4 mph 23.0 mph 0.00 in Snow Light Snow
9:16 PM 15.8 °F 2.1 °F 8.6 °F 73% 30.31 in 2.5 mi North 12.7 mph 21.9 mph 0.00 in Snow Light Snow
9:23 PM 15.8 °F 0.3 °F 8.6 °F 73% 30.30 in 4.0 mi North 16.1 mph - 0.00 in Snow Light Snow
9:53 PM 15.1 °F -0.6 °F 9.0 °F 77% 30.33 in 4.0 mi North 16.1 mph 25.3 mph 0.00 in Snow Light Snow
10:05 PM 15.8 °F 0.9 °F 8.6 °F 73% 30.30 in 5.0 mi North 15.0 mph 24.2 mph 0.00 in Snow Light Snow
10:14 PM 15.8 °F -0.2 °F 8.6 °F 73% 30.32 in 4.0 mi North 17.3 mph - 0.00 in Snow Light Snow
10:53 PM 14.0 °F -3.4 °F 7.0 °F 74% 30.38 in 8.0 mi North 19.6 mph 31.1 mph 0.00 in Snow Light Snow
11:53 PM 12.9 °F -4.4 °F 6.1 °F 74% 30.40 in 6.0 mi North 18.4 mph - 0.00 in Snow Light Snow